Location: Fornova de Taro
(44.7000°N, 10.1000°E)
Time: 02:14:14
(UTC+00:00)

Daily predictions for brighter satellites

Satellite Brightness Start Highest point End
(mag) Time Altitude Azimuth Time Altitude Azimuth Time Altitude Azimuth
ADEOS II 4.4 00:02:32 10° ENE 00:05:02 13° E 00:07:31 10° ESE
Cosmos 1867 4.0 00:05:02 37° WSW 00:06:56 56° NW 00:12:20 10° NNE
Cosmos 1674 Rocket 3.7 00:06:55 57° W 00:07:03 57° W 00:11:20 10° N
Cosmos 2221 Rocket 4.3 00:06:47 39° W 00:07:05 40° WNW 00:11:15 10° N
NOSS 2-2 (D) 4.3 00:02:13 10° NW 00:07:23 86° NE 00:11:38 25° SE
Cosmos 1461 3.9 00:03:38 10° NW 00:06:31 36° WNW 00:06:31 36° WNW
Cosmos 2298 Rocket 3.9 00:07:41 60° SSW 00:08:43 88° WNW 00:14:03 10° NNE
Cosmos 1674 4.1 00:10:51 28° WNW 00:10:51 28° WNW 00:13:54 10° NNW
USA 306 2.8 00:11:52 72° E 00:11:52 72° E 00:15:45 10° ENE
Cosmos 1238 Rocket 4.4 00:10:52 10° NNW 00:12:06 20° NW 00:12:06 20° NW
Thor Agena Rocket 3.9 00:09:03 10° NNE 00:14:16 56° ESE 00:15:34 44° SSE
USA 307 2.9 00:15:20 67° ESE 00:15:20 67° ESE 00:19:12 10° ENE
ATLAS CENTAUR R/B 3.6 00:12:02 10° WNW 00:13:59 17° W 00:13:59 17° W
SL-16 R/B 3.6 00:16:08 23° SE 00:17:51 27° ESE 00:22:30 10° NE
ERBS 3.8 00:22:52 29° ENE 00:22:52 29° ENE 00:24:34 10° NE
Cosmos 1980 3.6 00:20:38 52° SSW 00:22:07 89° ESE 00:27:48 10° NNE
Cosmos 1378 Rocket 4.2 00:22:19 41° W 00:22:41 42° WNW 00:26:56 10° N
Cosmos 2333 Rocket 4.0 00:19:42 14° W 00:23:17 24° NW 00:27:50 10° N
ATLAS 5 CENTAUR R/B 2.6 00:13:34 10° NW 00:24:00 58° WSW 00:24:39 53° SSW
CZ-4C R/B 3.2 00:17:34 10° NW 00:24:47 52° WSW 00:27:52 36° S
Cosmos 1455 Rocket 3.7 00:20:31 10° N 00:24:52 50° ENE 00:26:09 37° SE
Cosmos 332 Rocket 3.8 00:28:23 56° SSE 00:29:13 69° ESE 00:33:59 10° NNE
NOSS 0 Rocket 4.1 00:29:23 38° SW 00:31:47 66° WNW 00:38:01 10° NNE
USA 32 4.0 00:35:14 50° SSW 00:36:33 71° W 00:41:49 10° N
Meteor 1-24 Rocket 4.3 00:34:53 31° SSE 00:37:11 49° E 00:42:26 10° NNE
Meteor 2-10 Rocket 3.6 00:33:40 10° NNW 00:39:22 85° W 00:41:17 43° S
Cosmos 1975 Rocket 3.1 00:39:39 56° SSE 00:40:28 75° E 00:44:57 10° NNE
Cosmos 839 Rocket 4.3 00:38:40 10° NW 00:45:01 63° WSW 00:49:12 27° S
USA 308 2.9 00:44:46 53° W 00:45:38 72° NNW 00:49:49 10° NE
Cosmos 2219 Rocket 4.1 00:42:56 12° W 00:46:38 21° NW 00:50:48 10° N
Cosmos 1025 Rocket 3.1 00:47:03 53° SSE 00:47:58 72° E 00:52:16 10° NNE
Cosmos 1455 3.6 00:47:34 10° N 00:50:56 32° ENE 00:52:38 21° ESE
Cosmos 1269 Rocket 4.2 00:46:31 10° NNW 00:51:48 72° ENE 00:55:07 23° SSE
GP-B 3.4 00:53:03 10° N 00:57:20 50° W 00:58:07 44° WSW
Meteor 2-5 Rocket 3.7 00:55:37 37° S 00:58:03 85° E 01:03:45 10° NNE
Lacrosse 5 2.0 00:58:31 43° S 00:59:56 61° SE 01:04:57 10° NE
CZ-2D R/B 2.2 00:54:50 10° NNE 01:00:14 74° ESE 01:02:28 36° S
Cosmos 1300 3.7 00:58:21 10° NNW 01:01:27 31° W 01:01:27 31° W
USA 267 4.1 01:02:14 27° WSW 01:02:14 27° WSW 01:07:23 10° WNW
USA 305 3.7 01:07:08 25° W 01:09:12 45° NNW 01:13:14 10° NE
Cosmos 1544 Rocket 3.6 01:06:50 10° N 01:11:16 81° E 01:13:10 34° SSE
USA 229 DEB 4.4 01:05:08 10° NW 01:11:56 39° WSW 01:15:06 28° SSW
USA 229 4.4 01:05:13 10° NW 01:12:03 40° WSW 01:15:15 28° SSW
Cosmos 2237 Rocket 3.0 01:11:28 25° WSW 01:14:14 41° WNW 01:19:38 10° NNE
SL-16 R/B 2.5 01:14:42 20° SSE 01:19:10 84° WSW 01:25:27 10° NNW
AQUA 3.9 01:14:47 10° NNE 01:19:33 71° ESE 01:21:49 31° S
Helios 1A 3.9 01:16:52 14° SE 01:20:21 48° ENE 01:24:26 10° N
Lacrosse 5 rocket 1.4 01:21:54 44° S 01:22:45 56° SE 01:26:43 10° NE
SAR-Lupe-2 3.6 01:19:32 10° NNE 01:23:07 72° ESE 01:24:09 43° S
SME Rocket 3.8 01:24:35 32° WSW 01:25:10 34° W 01:29:31 10° NNW
Resurs 1-4 Rocket 2.2 01:24:10 10° N 01:29:22 61° WNW 01:31:56 30° SW
Cosmos 2074 Rocket 4.0 01:23:14 10° N 01:29:33 78° W 01:33:59 21° S
Cosmos 2297 3.7 01:28:39 10° NNW 01:34:26 88° WSW 01:40:10 10° SSE
Cosmos 1943 Rocket 2.1 01:28:47 10° NNW 01:34:27 70° WSW 01:39:28 13° SSE
Cosmos 1703 3.9 01:35:52 22° SSE 01:38:09 51° E 01:41:59 10° NNE
CRYOSAT 2 4.3 01:38:47 25° S 01:41:39 73° W 01:46:33 10° N
Cosmos 2184 Rocket 4.1 01:38:13 10° NNW 01:44:23 62° W 01:48:45 20° SSW
Cosmos 2278 Rocket 3.8 01:41:40 10° WNW 01:44:58 16° W 01:45:23 16° WSW
ADEOS II 2.0 01:40:04 10° NNE 01:45:21 83° WNW 01:48:40 23° SSW
IDEFIX/ARIANE 42P 2.6 01:40:58 10° NNE 01:46:16 85° ESE 01:49:52 21° SSW
Cosmos 1610 Rocket 4.4 01:42:03 10° N 01:48:15 87° W 01:54:08 11° S
Cosmos 292 Rocket 3.8 01:48:10 24° SSW 01:51:03 83° ESE 01:55:52 10° NNE
Cosmos 2084 Rocket 4.4 01:49:15 20° W 01:51:17 32° NW 01:54:45 10° NNE
USA 306 4.5 01:47:44 10° W 01:51:28 31° NNW 01:55:13 10° NE
USA 307 4.4 01:51:08 10° W 01:54:55 32° NNW 01:58:43 10° NE
ERBS 4.4 01:54:55 10° WNW 01:57:09 18° NNW 01:59:24 10° NNE
NPP 4.2 01:52:12 10° N 01:57:18 44° WNW 02:00:35 21° SW
Cosmos 2369 Rocket 2.4 01:54:07 10° NNW 01:59:45 75° ENE 02:05:19 10° SSE
SL-16 R/B 2.7 01:58:00 21° SW 02:01:39 49° WNW 02:07:11 10° NNE
Cosmos 2228 3.0 01:58:51 10° N 02:03:15 90° W 02:07:32 10° S
IRS-1D 3.8 01:57:55 10° NNE 02:03:16 73° ESE 02:07:54 14° S
Cosmos 614 Rocket 4.0 01:58:09 10° NNW 02:03:18 62° WSW 02:08:26 10° S
EO 1 Del DPAF 3.2 02:00:02 10° N 02:03:30 57° WNW 02:05:17 25° SW
Cosmos 2251 Rocket 3.6 02:00:03 10° NNW 02:05:21 84° ENE 02:10:39 10° SSE
Meteor 1-28 Rocket 3.6 02:03:37 24° SSW 02:05:30 43° W 02:09:06 10° NNW
Cosmos 1656 Rocket 3.9 02:03:42 10° NNW 02:09:08 71° ENE 02:14:32 10° SSE
COSMOS 2455 2.9 02:04:48 20° SW 02:09:11 78° WNW 02:15:15 10° NNE
Cosmos 1536 Rocket 4.1 02:08:03 21° SW 02:10:34 43° WNW 02:14:47 10° N
COSMOS 2441 4.3 02:13:41 10° N 02:18:35 80° WNW 02:22:48 14° SSW
Cosmos 1408 4.5 02:16:34 10° SSE 02:19:42 28° E 02:22:50 10° NNE
Nadezhda 1 Rocket 4.4 02:15:05 16° SSW 02:19:59 50° WNW 02:26:07 10° N
MSX 4.0 02:17:35 10° N 02:23:17 65° WNW 02:28:25 13° SSW
Cosmos 1603 4.0 02:19:47 11° SSW 02:25:05 66° ESE 02:30:43 10° NNE
MOS 1 Rocket 4.3 02:23:22 17° SW 02:25:22 23° W 02:28:49 10° NW
Cosmos 1455 3.9 02:23:43 10° NW 02:26:09 17° W 02:27:23 15° WSW
Cosmos 1271 Rocket 3.7 02:26:50 10° NNW 02:30:10 29° W 02:32:44 15° SW
Cosmos 1606 Rocket 3.6 02:30:02 10° NNW 02:34:24 63° W 02:38:43 10° S
ALOS 3.1 02:33:07 10° NNE 02:37:40 50° E 02:42:12 10° S
CZ-2D R/B 3.9 02:36:09 10° NNW 02:39:38 18° WNW 02:43:05 10° W
CZ-2C R/B 3.2 02:34:50 10° NNE 02:39:51 52° E 02:44:42 10° S
Lacrosse 5 3.1 02:38:28 10° W 02:43:10 36° NNW 02:47:52 10° NE
Helios 1B rocket 2.4 02:40:24 10° NNE 02:44:29 83° WNW 02:48:32 10° SSW
Cosmos 2366 rocket 4.0 02:40:32 10° N 02:46:43 86° W 02:52:54 10° S
Cosmos 2341 Rocket 4.2 02:40:56 10° NNW 02:47:12 60° W 02:53:28 10° S
Meteor 2-1 Rocket 4.5 02:46:11 10° NNW 02:51:47 53° W 02:57:13 10° S
BREEZE-M DEB (TANK) 2.4 02:47:13 10° WSW 02:51:48 70° SSE 02:54:03 10° ENE
Cosmos 407 Rocket 3.5 02:47:58 10° NNW 02:53:16 67° WSW 02:58:28 10° S
Meteor 1-11 4.4 02:47:28 10° S 02:53:17 83° E 02:59:05 10° NNE
SL-8 Rocket 4.1 02:47:42 10° NNW 02:53:58 64° W 03:00:11 10° S
Okean 1-7 Rocket 4.4 02:50:39 10° S 02:54:56 53° E 02:59:14 10° NNE
Cosmos 1371 Rocket 4.1 02:50:03 10° SSW 02:55:11 80° ESE 03:00:24 10° NNE
Cosmos 1328 4.3 02:52:28 10° SSW 02:56:14 43° WNW 03:00:03 10° N
Cosmos 1943 3.4 02:50:56 10° SW 02:56:35 65° WNW 03:02:16 10° NNE
Genesis I 3.2 02:56:54 10° NW 03:00:56 72° WSW 03:04:53 10° SSE
Lacrosse 5 rocket 2.8 02:58:36 10° W 03:02:03 28° NNW 03:05:42 10° NE
Meteor 1-29 3.4 03:00:20 10° NNE 03:03:33 57° ESE 03:06:45 10° S
SL-16 R/B 4.2 03:00:43 10° WSW 03:03:39 14° W 03:06:36 10° WNW
Cosmos 1140 Rocket 3.7 02:59:05 10° NNW 03:04:10 50° WSW 03:09:12 10° S
Lacrosse 4 Rocket 2.7 03:04:51 10° S 03:08:49 37° ESE 03:12:44 10° NE
SeaSat 1 3.2 03:04:31 10° NE 03:09:21 52° ESE 03:14:09 10° S
Cosmos 1892 Rocket 4.1 03:05:47 10° SSW 03:10:01 43° WNW 03:14:19 10° N
IRS-1C 4.2 03:06:02 10° NNE 03:11:24 84° WNW 03:16:44 10° SSW
